H-2A R/B (38341 NORAD) Tracking and Keplerian Element Data

This shows tracking and keplerian element data for the satellite.

Feedback or suggestion? Click here.




ElementValue
Catalog38341
NameH-2A R/B
Epoch Orbit73633
Epoch Day354.13857294
Epoch Year2025
RAAN309.9394
Inclination98.4607
Eccentricity0.0044242
Argument of Perigee211.6658
Mean Anonmoly148.1897
Mean Motion14.94489297
Decay Rate1.637E-05
L11 38341U 12025E 25354.13857294 .00001637 00000+0 15516-3 0 9994
L22 38341 98.4607 309.9394 0044242 211.6658 148.1897 14.94489297736334



Live tracking and technical data element details for H-2A R/B (NORAD 38341). H-2A R/B can be tracked NOW for your location showing map with azimuth and elevation plus other details from your city location.







IsCatalogInMostPopularTable: catalog: 38341, numindb: 1174
Update: records affected: 1



GetName: 38341 H-2A R/B

Hit Count: updated at: Sat, 07 Mar 2026 06:02:55 GMT